Location: Lamy Ridge Observatory
(35.5010°N, 105.8759°W)
Time: 17:13:18
(UTC-06:00)

ACS3 Solar Sail - Pass Details

Date: 14 September 2024
Orbit: 963 x 1036 km, 97.4° (Epoch: 04 October)

Event Time Altitude Azimuth Distance (km) Brightness Sun altitude
Rises 11:49:47 0° 349° (N) 3,767 4.5 53.8°
Reaches altitude 10° 11:54:04 10° 321° (NW) 2,796 4.0 54.2°
Drops below altitude 10° 11:58:42 10° 277° (W) 2,772 4.1 54.7°
Enters shadow 12:45:04 -74° 141° (SE) 13,279 7.2 57.3°
Exits shadow 13:10:27 -44° 45° (NE) 10,321 6.5 57.4°
Maximum altitude 20:14:01 23° 66° (ENE) 2,060 3.1 -13.5°
